Probability
18 17 16 16 16 14 14 13 13 12 11 11 13 15 16 13 11 13 14 8 3 1 0 0 0 0 1 2 3 3 2 1 0 0 0 0 0 0
18 17 17 16 15 15 14 14 14 14 14 14 15 16 16 13 11 13 14 10 5 2 1 0 0 0 0 1 2 2 2 2 1 1 1 0 0 0
19 19 18 16 16 17 17 16 16 17 19 18 18 19 19 17 14 14 13 11 8 5 2 1 0 0 0 0 1 1 2 2 2 2 2 1 1 1
22 22 22 20 20 21 20 18 18 20 22 21 21 22 22 21 19 16 14 14 12 6 3 1 0 0 0 0 0 0 1 1 1 2 2 2 2 2
26 26 25 25 25 26 24 22 21 22 24 25 23 24 25 24 21 18 17 18 15 9 4 2 1 0 0 0 0 0 0 0 0 1 1 1 1 1
29 28 27 25 26 26 26 25 24 23 25 27 25 24 26 26 23 20 19 20 19 15 10 6 3 1 0 0 0 0 0 0 0 0 0 0 0 0
32 30 28 25 23 22 23 23 24 24 24 25 24 24 26 27 24 21 20 20 21 19 15 10 5 2 1 0 0 0 0 0 0 0 0 0 0 0
34 33 30 26 23 21 19 19 20 21 23 23 23 24 25 25 24 21 20 19 20 20 18 14 10 8 4 2 0 0 0 0 0 0 0 0 0 0
35 34 32 29 27 25 22 19 19 18 18 21 23 25 26 24 24 23 21 20 21 22 20 17 16 13 9 4 1 0 0 0 0 0 0 0 0 0
33 34 35 33 30 28 27 25 24 20 16 15 19 22 22 21 22 23 22 20 20 21 22 21 20 17 13 8 3 0 0 0 0 0 0 0 0 0
31 32 34 34 30 27 28 29 29 25 18 13 13 13 12 12 14 19 20 18 16 17 21 22 22 19 15 12 7 3 1 0 0 0 0 0 0 0
28 28 28 27 24 21 24 28 29 27 22 16 12 10 9 9 9 12 16 15 14 14 18 20 20 19 17 15 11 7 3 1 0 0 0 0 0 0
25 24 22 18 13 10 15 23 25 24 23 20 17 17 16 15 13 12 14 14 14 14 16 18 17 17 16 13 11 8 5 2 1 1 1 0 0 0
23 21 17 10 4 2 6 12 15 16 19 21 21 22 21 20 17 15 15 15 14 14 15 17 16 15 14 10 7 6 5 4 3 2 2 2 1 0
19 16 11 5 2 1 2 4 6 10 16 19 21 22 22 21 19 17 18 18 17 15 15 16 15 13 11 9 6 4 5 5 5 4 4 4 4 2
15 14 10 6 5 6 6 6 7 10 14 17 18 20 21 21 19 17 18 19 18 16 16 16 14 11 10 8 6 4 5 5 5 5 5 5 5 4
17 17 15 13 13 13 13 13 13 15 16 16 17 18 20 20 18 17 17 17 16 15 15 14 12 10 9 8 6 4 3 4 4 5 5 4 3 2
17 18 20 20 20 19 19 19 19 20 19 18 17 18 20 20 18 16 15 14 12 12 13 13 12 11 10 8 5 3 3 3 4 5 5 3 1 0
15 17 20 22 21 20 20 21 22 22 21 19 17 18 19 19 17 15 13 12 10 9 11 11 12 12 11 9 6 4 3 4 5 6 5 2 1 0
15 17 18 19 20 20 20 21 24 25 23 20 18 19 20 19 17 15 13 11 9 8 8 10 10 11 11 11 9 6 4 4 5 5 4 2 1 1
16 17 17 18 20 22 22 23 24 24 22 20 19 20 21 21 19 17 15 13 10 9 9 10 10 10 10 10 9 7 5 4 3 3 2 1 1 0
15 16 17 19 21 22 21 21 21 19 18 16 16 17 19 19 17 17 16 15 13 12 12 11 10 10 9 8 8 7 5 3 2 1 1 0 0 0
13 14 17 19 19 19 19 17 16 15 14 12 12 13 15 16 15 15 16 15 14 15 14 13 11 10 9 8 7 6 5 3 2 1 0 0 0 0
Wind_Speed
2 2 2 2 1 1 1 1 1 1 2 1 1 1 2 2 4 3 4 7 7 6 6 5 5 4 3 3 3 3 3 3 3 3 3 3 4 4
1 1 1 2 2 2 1 1 1 1 2 1 1 1 1 2 3 3 3 8 9 9 8 7 7 6 5 4 4 4 4 4 4 5 4 4 4 4
2 1 1 2 2 2 2 2 2 1 2 1 0 1 1 1 2 3 3 4 5 11 11 10 9 8 7 6 6 5 5 5 6 6 6 5 5 6
2 2 2 1 2 2 2 3 2 2 2 2 2 1 2 2 3 3 3 4 4 10 13 12 11 11 9 8 8 7 6 6 6 6 6 6 7 7
2 2 2 2 2 2 3 3 3 3 2 2 3 1 2 2 2 3 4 2 4 6 11 11 12 12 11 10 9 8 8 7 7 6 6 7 7 7
2 2 2 2 2 2 3 2 3 3 2 2 2 2 1 2 1 2 3 3 4 4 4 6 10 12 12 11 11 10 9 8 8 8 8 8 8 8
2 2 2 2 2 2 3 2 3 3 3 2 2 2 2 1 1 2 3 3 3 3 2 3 5 5 7 10 12 12 11 10 10 9 9 9 8 8
3 3 3 4 4 4 4 4 3 3 3 3 3 3 2 2 2 2 3 3 3 2 2 3 3 4 5 5 9 12 12 11 11 11 10 10 9 9
4 4 5 3 3 3 4 5 5 6 5 4 4 4 3 3 2 3 3 4 4 3 3 4 3 3 3 4 9 11 11 11 11 11 11 11 10 10
4 4 4 3 3 2 4 4 4 5 6 6 5 6 5 3 3 4 5 5 5 4 3 4 4 3 3 3 8 11 11 11 11 10 10 10 10 10
6 5 4 3 3 2 3 4 4 4 7 7 7 7 8 7 5 3 4 4 5 4 2 3 4 3 3 3 5 9 10 11 11 11 10 10 9 8
4 4 4 4 4 4 4 4 5 5 5 5 5 6 6 6 7 5 4 5 5 4 3 3 4 3 3 2 2 3 5 8 10 10 10 9 8 5
4 3 3 4 5 6 6 6 7 6 5 5 5 4 4 3 4 4 5 5 5 5 3 2 3 3 3 3 2 2 3 3 4 5 8 9 8 7
4 3 2 3 5 7 7 8 9 7 5 5 4 4 4 4 4 4 5 6 6 7 5 4 4 4 4 4 3 2 2 3 3 3 4 6 8 9
4 4 4 6 6 6 9 9 7 5 5 5 5 5 4 4 3 4 5 6 6 7 5 5 5 4 4 5 4 3 3 3 3 3 4 5 5 5
5 5 6 7 6 6 6 5 5 5 5 5 4 4 4 3 3 3 3 3 4 5 5 5 4 4 5 5 5 4 3 3 3 3 3 3 4 5
4 4 4 3 4 4 4 3 4 3 4 4 4 4 3 3 3 3 3 3 3 4 4 3 3 3 4 4 4 4 4 3 3 3 3 3 4 4
3 4 4 4 4 4 4 4 4 4 3 3 3 3 3 3 4 3 3 3 4 4 4 3 3 3 3 4 5 4 4 3 3 3 3 3 3 3
3 5 4 4 4 4 4 4 4 3 3 2 3 2 2 3 4 4 3 3 4 4 3 3 3 3 5 6 5 4 4 3 3 3 3 3 4 4
4 4 4 4 4 4 4 3 3 2 2 2 3 2 3 3 4 4 4 4 4 4 4 3 3 3 5 6 5 5 6 4 3 4 3 3 3 3
4 4 4 4 4 3 3 3 3 2 2 3 3 3 3 3 4 4 4 5 5 4 4 4 4 6 4 3 4 4 3 5 5 4 3 3 3 3
4 4 4 4 3 3 2 3 3 2 2 2 3 2 3 3 4 5 4 4 4 4 5 4 4 3 3 4 5 5 4 3 4 6 6 5 4 4
4 4 3 3 2 2 2 2 2 2 2 2 3 3 3 3 4 4 4 4 4 5 5 5 3 3 4 4 4 4 4 4 3 2 3 5 7 7
Wind_Direction
285 292 285 298 305 300 284 261 272 281 275 230 267 117 114 109 149 182 164 180 186 190 189 193 198 206 208 214 219 218 220 218 214 216 223 227 226 225
240 289 302 308 317 308 312 294 281 276 285 235 219 159 130 161 180 211 188 180 194 194 196 198 203 207 207 210 214 219 222 222 222 219 218 222 226 229
256 248 247 269 298 309 305 292 284 285 277 279 224 167 173 198 187 227 205 186 193 202 205 205 207 208 209 214 218 221 227 230 231 228 229 230 228 225
251 267 267 264 278 292 304 303 299 280 256 275 268 220 213 209 208 232 241 220 202 202 206 209 209 210 212 216 218 221 225 230 232 231 232 233 232 229
239 247 258 262 276 283 286 295 299 297 272 266 268 246 233 234 227 249 264 258 247 213 203 211 215 215 214 216 217 218 221 225 228 230 233 235 235 234
261 257 269 265 274 286 278 286 293 299 287 273 268 269 244 239 228 252 266 251 255 246 209 208 213 216 219 220 220 219 219 223 226 228 231 233 232 232
250 246 248 238 242 262 289 298 299 300 298 290 283 283 278 275 259 263 275 269 258 248 221 220 206 211 216 222 225 224 220 220 223 226 228 230 231 231
241 247 243 224 225 231 255 269 265 266 280 288 286 281 281 274 268 276 286 290 285 263 257 251 216 213 213 211 213 214 219 222 224 225 228 229 229 231
244 245 256 244 213 227 238 250 254 254 247 261 276 284 283 279 278 280 278 277 272 271 270 267 251 239 224 220 202 203 210 218 224 226 227 227 228 229
245 241 239 238 256 249 253 252 249 252 245 241 253 266 271 267 255 261 271 275 271 267 242 260 263 252 248 218 202 200 206 213 220 223 226 228 228 229
245 244 239 225 229 236 256 268 270 266 257 254 249 254 260 258 252 273 276 279 278 274 245 248 260 260 240 224 217 205 210 214 216 218 220 224 225 224
249 238 228 222 215 212 236 258 268 275 283 278 267 262 259 255 242 237 255 266 274 275 257 256 267 271 271 237 219 204 212 220 221 222 222 221 216 214
264 246 225 213 223 230 238 251 256 269 275 267 261 253 247 244 235 233 238 248 260 266 272 265 271 271 263 274 259 226 199 202 208 220 221 218 210 205
277 281 261 234 237 240 243 252 264 271 267 265 263 257 249 242 236 234 239 241 245 250 257 259 262 265 273 280 277 255 233 206 197 206 209 207 214 217
283 307 294 265 258 252 249 251 254 255 256 260 260 260 257 254 242 238 242 243 250 257 260 253 252 256 255 264 272 265 264 241 206 203 204 204 206 207
263 270 260 248 252 262 262 247 239 245 255 262 265 265 266 263 255 255 252 249 253 261 256 250 245 245 253 261 263 267 262 253 231 225 220 220 209 204
257 250 248 247 246 250 254 249 242 240 248 263 273 277 279 277 272 278 278 275 264 271 283 274 262 254 255 266 264 263 262 259 246 234 241 239 224 210
254 258 257 258 261 260 259 258 253 253 251 248 254 261 275 287 285 281 275 271 269 268 266 264 261 271 276 270 255 258 263 267 269 247 239 239 239 226
240 258 261 264 266 267 266 265 266 264 254 257 258 261 275 284 285 283 280 277 276 275 274 274 263 252 270 275 271 253 255 259 253 252 242 234 239 234
248 259 265 267 267 267 269 273 275 274 269 271 273 270 267 272 275 278 278 277 280 280 277 269 263 259 259 267 272 272 248 244 240 240 245 250 248 236
262 262 265 271 270 269 271 271 269 264 269 268 266 268 270 272 276 280 278 281 277 274 277 275 267 262 262 268 270 266 254 248 247 237 229 237 246 236
267 266 266 265 270 277 277 273 272 270 266 269 280 283 283 280 281 282 281 282 279 278 278 274 265 262 258 260 270 273 268 262 255 253 242 231 222 226
263 268 270 274 279 278 281 294 298 298 301 294 295 293 293 291 285 283 282 279 282 283 284 282 277 270 268 265 270 275 276 266 258 251 258 251 241 242